#timestamp,LO_Frequency,Hit 
1502881215.3,286047000.8,N
1502881235.2,286046999.5,N
1502881255.0,286046999.6,N
1502881255.9,286046999.6,N
1502881275.8,286046999.5,N
1502881295.6,286046997.1,P
1502881315.4,286046999.4,N
1502881335.3,286046996.5,N
1502881355.1,286046996.9,N
1502881375.8,286046999.6,N
1502881395.7,286046997.2,N
1502881415.5,286046996.7,N
1502881435.3,286046996.8,N
1502881455.2,286046997.8,N
1502881475.0,286046997.5,N
1502881475.9,286046997.5,N
1502881495.8,286046996.9,N
1502881515.6,286046997.9,N
1502881535.4,286046996.5,P
1502881555.3,286047000.6,N
1502881575.1,286047000.4,N
1502881595.8,286047000.8,N
1502881615.7,286047001.1,N
1502881635.5,286047000.6,N
1502881655.3,286047002.3,N
1502881675.2,286047002.3,N
1502881695.0,286047000.1,N
1502881695.9,286047000.1,N
1502881715.8,286047002.7,N
1502881735.6,286046999.9,N
1502881755.4,286047000.2,N
1502881775.3,286047002.5,N
1502881795.1,286047003.8,N
1502881815.8,286047003.3,N
1502881835.7,286047004.0,N
1502881855.5,286047001.5,N
1502881875.3,286047002.3,N
1502881895.2,286047002.5,N
1502881915.0,286047000.1,N
1502881915.9,286047000.1,N
1502881935.8,286047002.4,N
1502881955.6,286046999.8,N
1502881975.4,286046999.8,N
1502881995.3,286047004.4,N
1502882015.1,286047002.2,N
1502882016.0,286047002.2,N
1502882035.8,286047000.1,N
1502882055.7,286047000.6,N
1502882075.5,286047000.0,N
1502882095.3,286047000.1,N
1502882115.2,286046999.8,N
1502882135.0,286047000.5,N
1502882135.9,286047000.5,N
1502882155.8,286047000.3,N
1502882175.6,286047002.2,N
1502882195.4,286047002.7,N
1502882215.3,286047000.1,N
1502882235.1,286046999.8,N
1502882236.0,286046999.8,N
1502882255.8,286047002.8,N
1502882275.7,286047001.9,N
1502882295.5,286047000.2,N
1502882315.3,286047001.5,N
1502882335.2,286047001.4,N
1502882355.0,286047001.4,N
1502882355.9,286047001.4,N
1502882375.7,286047002.2,N
1502882395.6,286046999.7,N
1502882415.4,286047000.0,N
1502882435.3,286047004.3,P
1502882455.1,286046999.7,N
1502882456.0,286046999.7,N
1502882475.8,286047000.5,N
1502882495.7,286046998.6,N
1502882515.5,286046999.9,N
1502882535.3,286047002.2,N
1502882555.2,286047002.5,N
1502882575.0,286047002.6,N
1502882575.9,286047002.6,N
1502882595.8,286047002.0,N
1502882615.6,286047001.9,N
1502882635.4,286047001.9,N
1502882655.3,286047002.5,N
1502882675.1,286047001.6,N
1502882676.0,286047001.6,N
1502882695.8,286047002.0,N
1502882715.7,286047002.0,N
1502882735.5,286047003.9,N
1502882755.3,286047004.2,P
1502882775.2,286047002.6,N
1502882795.0,286047002.7,N
1502882795.9,286047002.7,N
1502882815.8,286047000.9,N
1502882835.6,286046998.1,N
1502882855.4,286047001.2,N
1502882875.3,286047002.6,N
1502882895.1,286047002.1,N
1502882896.0,286047002.1,N
1502882915.8,286047000.3,N
1502882935.7,286047002.3,N
1502882955.5,286047001.5,N
1502882975.3,286047002.8,N
1502882995.2,286047000.4,N
1502883015.0,286047000.3,N
1502883015.9,286047000.3,N
1502883035.8,286047001.6,N
1502883055.6,286047002.1,N
1502883075.4,286047002.0,N
1502883095.3,286047002.0,N
1502883115.1,286046999.7,N
1502883116.0,286046999.7,N
1502883135.8,286047000.1,N
1502883155.7,286046998.2,N
1502883175.5,286047000.7,N
1502883195.3,286047000.3,N
1502883215.2,286047001.2,N
1502883235.0,286046998.9,N
1502883235.9,286046998.9,N
1502883255.8,286046999.3,N
1502883275.6,286046996.9,N
1502883295.4,286046996.7,N
1502883315.3,286046999.0,N
1502883335.1,286047001.0,N
1502883355.8,286046999.8,N
1502883375.7,286047002.8,N
1502883395.5,286047000.5,N
1502883415.3,286047000.4,N
1502883435.2,286047000.9,N
1502883455.0,286047002.3,N
1502883455.9,286047002.3,N
1502883475.8,286047000.2,N
1502883495.6,286047001.0,N
1502883515.4,286047000.5,N
1502883535.3,286046999.9,N
1502883555.1,286047001.0,N
1502883556.0,286047001.0,N
1502883575.8,286046998.5,N
1502883595.7,286047000.6,N
1502883615.5,286046999.7,N
1502883635.3,286047000.6,N
1502883655.2,286046999.8,N
1502883675.0,286047000.9,N
1502883675.9,286047000.9,N
1502883695.8,286047002.6,N
1502883715.6,286047000.1,N
1502883735.4,286047000.1,N
1502883755.3,286046998.1,N
1502883775.1,286047000.7,N
1502883776.0,286047000.7,N
1502883795.8,286047000.4,N
1502883815.7,286047000.2,N
1502883835.5,286047000.1,N
1502883855.3,286047000.2,N
1502883875.2,286047000.3,N
1502883895.0,286047000.5,N
1502883895.9,286047000.5,N
1502883915.8,286047000.7,N
1502883935.6,286047000.3,N
1502883955.4,286047000.1,N
1502883975.3,286047002.4,N
1502883995.1,286047000.4,P
1502884015.8,286047000.6,P
1502884035.7,286047000.4,P
1502884055.5,286046998.2,P
1502884075.4,286046998.8,N
1502884095.2,286046998.9,N
1502884115.0,286046998.1,N
1502884115.9,286046998.1,N
1502884135.8,286046998.1,N
1502884155.6,286047001.0,N
1502884175.4,286047002.6,N
1502884195.3,286047003.8,N
1502884215.1,286047002.4,N
1502884235.8,286047002.4,N
1502884255.7,286047001.5,N
1502884275.5,286046999.9,N
1502884295.4,286047001.4,N
1502884315.2,286047002.0,N
1502884335.0,286047003.9,N
1502884335.9,286047003.9,N
1502884355.8,286047001.7,N
1502884375.6,286047002.7,N
1502884395.4,286046999.7,N
1502884415.3,286047002.3,N
1502884435.1,286046999.7,N
1502884455.8,286047000.5,N
1502884475.7,286047000.6,N
1502884495.5,286047000.9,N
1502884515.4,286047002.5,N
1502884535.2,286047002.8,N
1502884555.0,286047001.5,N
1502884555.9,286047001.5,N
1502884575.8,286047002.5,N
1502884595.6,286047002.2,N
1502884615.4,286047002.1,N
1502884635.3,286047004.0,N
1502884655.1,286047003.7,N
1502884675.8,286047002.0,N
1502884695.7,286047001.8,N
1502884715.5,286047002.0,N
1502884735.4,286047002.7,N
1502884755.2,286047002.1,N
1502884775.0,286047002.2,N
1502884775.9,286047002.2,N
1502884795.8,286047001.6,N
